Regional Weather Roundup
Issued by NWS

Home | Current Version | Previous Version | Graphics & Text | Print | Product List | Glossary On
Versions: 1 2 3 4 5 6 7 8 9 10 11 12 13 14 15 16 17 18 19 20 21 22 23 24 25 26 27 28 29 30 31 32 33 34 35 36 37 38 39 40 41 42 43 44 45 46 47 48 49 50
000
ASUS43 KIND 231359
RWRIN

WEATHER ROUNDUP FOR INDIANA
NATIONAL WEATHER SERVICE INDIANAPOLIS IN
1000 AM EDT FRI JUN 23 2017

NOTE: "FAIR" INDICATES FEW OR NO CLOUDS BELOW 12,000 FEET WITH NO
SIGNIFICANT WEATHER AND/OR OBSTRUCTIONS TO VISIBILITY.

* - STATION DOES NOT REPORT WEATHER SUCH AS PRECIPITATION OR FOG.

+ - STATION NOT QUALITY CONTROLLED BY THE NATIONAL WEATHER SERVICE.
    USE DATA WITH CAUTION...ESPECIALLY DEWPOINT AND RELATIVE
    HUMIDITY OBSERVATIONS.

INZ001>003-010>013-019-020-231500-
NORTHWEST INDIANA

CITY           SKY/WX    TMP DP  RH WIND       PRES   REMARKS
GARY /AIRPORT/ CLOUDY    68  66  94 NW9       29.72R
KNOX *+        CLOUDY    64  64 100 W7        29.69R
MICHIGAN CITY+ HVY RAIN  64  64 100 NW8       29.70R
MONTICELLO +   MOSUNNY   71  67  88 NW9       29.69S
RENSSELAER +   RAIN      70  64  83 W5        29.70F

$$

LMZ046-743>745-231500-
SOUTHERN LAKE MICHIGAN

STATION/POSITION TIME  TEMP    WIND        PRES    WAVE
                       AIR SEA DIR/SP/G            HT
                 (UTC) (F)     (DEG/KT/KT) (MB)    (FT)
BURNS HARBOR     1340   66     300/  8/ 11 1006.4R
MICHIGAN CITY    1330   66     250/ 17/ 19   N/A
5NW MICH CITY    1350   66 67  320/ 14/ 19   N/A     1

$$

INZ004-005-014>016-021>024-231500-
NORTH CENTRAL INDIANA

CITY           SKY/WX    TMP DP  RH WIND       PRES   REMARKS
ELKHART        PTSUNNY   68  66  94 SW5       29.65F
GOSHEN         LGT RAIN  71  64  78 S3        29.65F
PERU/GRISSOM   LGT RAIN  68  68 100 N10       29.66F
SOUTH BEND     LGT RAIN  67  66  97 W10       29.68R

$$

INZ006>009-017-018-025>027-231500-
NORTHEAST INDIANA

CITY           SKY/WX    TMP DP  RH WIND       PRES   REMARKS
FORT WAYNE     PTSUNNY   72  66  81 NW16G28   29.69R
KENDALLVILLE + CLOUDY   N/A N/A N/A CALM      29.68F

$$

INZ028-029-035-036-043>045-051>053-231500-
WEST CENTRAL INDIANA

CITY           SKY/WX    TMP DP  RH WIND       PRES   REMARKS
LAFAYETTE      RAIN      68  67  96 NW9       29.70R FOG
TERRE HAUTE    CLOUDY    77  73  87 SW10      29.71F

$$

INZ030>032-037>040-046>048-054>057-064-065-231500-
CENTRAL INDIANA

CITY           SKY/WX    TMP DP  RH WIND       PRES   REMARKS
COLUMBUS       LGT RAIN  73  72  94 SW12      29.74S
GREENWOOD *+   CLOUDY   N/A N/A N/A S13       29.73S
INDIANAPOLIS   LGT RAIN  75  73  93 SW13      29.71S FOG
-EAGLE CREEK   LGT RAIN  74  72  93 SW7       29.69F FOG
KOKOMO +       RAIN      69  67  93 N16G26    29.71R FOG
MT COMFORT *+  CLOUDY    75  73  94 SW7       29.72S
SHELBYVILLE    LGT RAIN  76  72  87 SW13      29.72S

$$

INZ033-034-041-042-049-050-058-059-231500-
EAST CENTRAL INDIANA

CITY           SKY/WX    TMP DP  RH WIND       PRES   REMARKS
MUNCIE         LGT RAIN  76  73  91 SW8       29.70S FOG
RICHMOND +     RAIN      70  70 100 SW15      29.75F

$$

INZ060-061-067>069-081>083-085>088-231500-
SOUTHWEST INDIANA

CITY           SKY/WX    TMP DP  RH WIND       PRES   REMARKS
EVANSVILLE     RAIN      75  72  90 S6        29.75F FOG
HUNTINGBURG *+ LGT RAIN  75  73  93 S7        29.77S

$$

INZ062-063-066-070>080-084-089>092-231500-
SOUTH CENTRAL AND SOUTHEAST INDIANA

CITY           SKY/WX    TMP DP  RH WIND       PRES   REMARKS
BLOOMINGTON    CLOUDY    76  71  85 SW13      29.75S
MADISON *+     PTSUNNY   77  72  83 SW13G22   29.80S
SEYMOUR +      RAIN      75  73  94 SW14      29.76R

$$





USA.gov is the U.S. government's official web portal to all federal, state and local government web resources and services.